| time (UTC) | temp C | wind direction | speed KPH | gust KPH | rain 1hr cm | rain 24hr cm | rain mn cm | humidity % | barometer mb |
| 20260503050445 | 7 | 35 | 4.8 | 4.8 | 0.00 | 0.00 | 0.00 | 60 | 1008.3 |
| 20260503045943 | 7 | 22 | 3.2 | 4.8 | 0.00 | 0.00 | 0.00 | 61 | 1008.1 |
| 20260503045441 | 7 | 32 | 1.6 | 1.6 | 0.00 | 0.00 | 0.00 | 60 | 1008.3 |
| 20260503044937 | 7 | 59 | 1.6 | 1.6 | 0.00 | 0.00 | 0.00 | 62 | 1008.3 |
| 20260503044434 | 7 | 356 | 6.4 | 8.0 | 0.00 | 0.00 | 0.00 | 61 | 1008.4 |
| 20260503043932 | 7 | 16 | 3.2 | 3.2 | 0.00 | 0.00 | 0.00 | 60 | 1008.3 |
| 20260503043428 | 7 | 49 | 4.8 | 4.8 | 0.00 | 0.00 | 0.00 | 59 | 1008.2 |
| 20260503042924 | 7 | 39 | 3.2 | 4.8 | 0.00 | 0.00 | 0.00 | 60 | 1008.3 |
| 20260503042421 | 7 | 13 | 4.8 | 4.8 | 0.00 | 0.00 | 0.00 | 60 | 1008.2 |
| 20260503041918 | 7 | 18 | 3.2 | 4.8 | 0.00 | 0.00 | 0.00 | 60 | 1008.4 |
| 20260503041414 | 7 | 10 | 4.8 | 4.8 | 0.00 | 0.00 | 0.00 | 61 | 1008.3 |
| 20260503040912 | 7 | 18 | 3.2 | 3.2 | 0.00 | 0.00 | 0.00 | 60 | 1008.4 |
| 20260503040409 | 7 | 15 | 4.8 | 4.8 | 0.00 | 0.00 | 0.00 | 59 | 1008.3 |
| 20260503035907 | 7 | 18 | 4.8 | 4.8 | 0.00 | 0.13 | 0.13 | 61 | 1008.3 |
| 20260503035403 | 7 | 9 | 4.8 | 4.8 | 0.00 | 0.13 | 0.13 | 60 | 1008.5 |
| 20260503034900 | 7 | 7 | 4.8 | 4.8 | 0.00 | 0.13 | 0.13 | 59 | 1008.4 |
| 20260503034358 | 7 | 11 | 3.2 | 3.2 | 0.00 | 0.13 | 0.13 | 61 | 1008.4 |
| 20260503033855 | 8 | 19 | 4.8 | 4.8 | 0.00 | 0.13 | 0.13 | 59 | 1008.4 |
| 20260503033352 | 8 | 12 | 4.8 | 4.8 | 0.00 | 0.13 | 0.13 | 59 | 1008.4 |
| 20260503032850 | 8 | 0 | 1.6 | 3.2 | 0.00 | 0.13 | 0.13 | 59 | 1008.1 |
| 20260503032349 | 8 | 30 | 1.6 | 3.2 | 0.00 | 0.13 | 0.13 | 58 | 1008.2 |
| 20260503031846 | 8 | 27 | 6.4 | 8.0 | 0.00 | 0.13 | 0.13 | 58 | 1008.3 |
| 20260503031344 | 8 | 359 | 4.8 | 8.0 | 0.00 | 0.13 | 0.13 | 58 | 1008.3 |
| 20260503030840 | 8 | 20 | 4.8 | 4.8 | 0.00 | 0.13 | 0.13 | 58 | 1008.4 |
| 20260503030336 | 8 | 6 | 3.2 | 3.2 | 0.00 | 0.13 | 0.13 | 58 | 1008.4 |
| 20260503025833 | 8 | 15 | 4.8 | 4.8 | 0.00 | 0.13 | 0.13 | 56 | 1008.4 |
| 20260503025331 | 8 | 25 | 4.8 | 4.8 | 0.00 | 0.13 | 0.13 | 58 | 1008.3 |
| 20260503024827 | 8 | 14 | 1.6 | 3.2 | 0.00 | 0.13 | 0.13 | 56 | 1008.4 |
| 20260503024324 | 8 | 24 | 6.4 | 8.0 | 0.00 | 0.13 | 0.13 | 55 | 1008.3 |
| 20260503023821 | 8 | 76 | 1.6 | 3.2 | 0.00 | 0.13 | 0.13 | 57 | 1008.5 |
| 20260503023318 | 8 | 38 | 4.8 | 4.8 | 0.00 | 0.13 | 0.13 | 59 | 1008.4 |
| 20260503022815 | 9 | 34 | 1.6 | 1.6 | 0.00 | 0.13 | 0.13 | 58 | 1008.6 |
| 20260503022315 | 9 | 8 | 3.2 | 3.2 | 0.00 | 0.13 | 0.13 | 56 | 1008.5 |
| 20260503021811 | 9 | 24 | 1.6 | 3.2 | 0.00 | 0.13 | 0.13 | 57 | 1008.7 |
| 20260503021308 | 9 | 16 | 1.6 | 3.2 | 0.00 | 0.13 | 0.13 | 58 | 1008.7 |
| 20260503020805 | 9 | 44 | 3.2 | 3.2 | 0.00 | 0.13 | 0.13 | 58 | 1008.6 |
| 20260503020303 | 9 | 41 | 1.6 | 1.6 | 0.00 | 0.13 | 0.13 | 56 | 1008.5 |
| 20260503015759 | 9 | 31 | 1.6 | 1.6 | 0.00 | 0.13 | 0.13 | 56 | 1008.6 |
| 20260503015256 | 9 | 29 | 3.2 | 3.2 | 0.00 | 0.13 | 0.13 | 57 | 1008.5 |
| 20260503014752 | 9 | 28 | 1.6 | 1.6 | 0.00 | 0.13 | 0.13 | 56 | 1008.3 |
| 20260503014250 | 9 | 16 | 1.6 | 3.2 | 0.00 | 0.13 | 0.13 | 56 | 1008.6 |
| 20260503013747 | 9 | 29 | 1.6 | 1.6 | 0.00 | 0.13 | 0.13 | 56 | 1008.4 |
| 20260503013244 | 9 | 13 | 1.6 | 1.6 | 0.00 | 0.13 | 0.13 | 56 | 1008.6 |
| 20260503012741 | 10 | 32 | 1.6 | 3.2 | 0.00 | 0.13 | 0.13 | 56 | 1008.5 |
| 20260503012239 | 10 | 16 | 3.2 | 3.2 | 0.00 | 0.13 | 0.13 | 55 | 1008.4 |
| 20260503011735 | 10 | 37 | 1.6 | 3.2 | 0.00 | 0.13 | 0.13 | 56 | 1008.5 |
| 20260503011232 | 10 | 15 | 3.2 | 3.2 | 0.00 | 0.13 | 0.13 | 55 | 1008.4 |
| 20260503010728 | 10 | 13 | 1.6 | 3.2 | 0.00 | 0.13 | 0.13 | 54 | 1008.5 |
| 20260503010225 | 10 | 29 | 3.2 | 3.2 | 0.00 | 0.13 | 0.13 | 53 | 1008.4 |
| 20260503005723 | 10 | 353 | 3.2 | 3.2 | 0.00 | 0.13 | 0.13 | 54 | 1008.3 |
| 20260503005220 | 10 | 20 | 3.2 | 3.2 | 0.00 | 0.13 | 0.13 | 53 | 1008.4 |
| 20260503004716 | 10 | 15 | 4.8 | 4.8 | 0.00 | 0.13 | 0.13 | 54 | 1008.4 |
| 20260503004215 | 10 | 26 | 4.8 | 4.8 | 0.00 | 0.13 | 0.13 | 55 | 1008.3 |
| 20260503003711 | 10 | 5 | 4.8 | 4.8 | 0.00 | 0.13 | 0.13 | 55 | 1008.1 |
| 20260503003209 | 10 | 17 | 4.8 | 8.0 | 0.00 | 0.13 | 0.13 | 57 | 1008.2 |
| 20260503002705 | 10 | 17 | 4.8 | 4.8 | 0.00 | 0.13 | 0.13 | 60 | 1008.2 |
| 20260503002202 | 10 | 354 | 3.2 | 3.2 | 0.00 | 0.13 | 0.13 | 60 | 1008.1 |
| 20260503001658 | 10 | 5 | 4.8 | 4.8 | 0.00 | 0.13 | 0.13 | 58 | 1008.0 |
| 20260503001155 | 10 | 10 | 3.2 | 3.2 | 0.00 | 0.13 | 0.13 | 61 | 1007.8 |
| 20260503000652 | 10 | 15 | 1.6 | 3.2 | 0.00 | 0.13 | 0.13 | 61 | 1007.9 |
| 20260503000149 | 10 | 30 | 1.6 | 1.6 | 0.00 | 0.13 | 0.13 | 61 | 1008.0 |
| 20260502235646 | 10 | 44 | 0.0 | 0.0 | 0.00 | 0.13 | 0.13 | 62 | 1007.9 |
| 20260502235144 | 10 | 28 | 0.0 | 1.6 | 0.00 | 0.13 | 0.13 | 62 | 1007.7 |
| 20260502234640 | 11 | 22 | 1.6 | 1.6 | 0.00 | 0.13 | 0.13 | 63 | 1007.8 |
| 20260502234138 | 11 | 7 | 1.6 | 3.2 | 0.00 | 0.13 | 0.13 | 60 | 1007.7 |
| 20260502233633 | 11 | 18 | 1.6 | 1.6 | 0.00 | 0.13 | 0.13 | 61 | 1007.5 |
| 20260502233130 | 11 | 28 | 1.6 | 1.6 | 0.00 | 0.13 | 0.13 | 59 | 1007.5 |
| 20260502232626 | 11 | 27 | 1.6 | 3.2 | 0.00 | 0.13 | 0.13 | 58 | 1007.5 |
| 20260502232124 | 11 | 26 | 1.6 | 1.6 | 0.00 | 0.13 | 0.13 | 57 | 1007.5 |
| 20260502231620 | 11 | 28 | 1.6 | 3.2 | 0.00 | 0.13 | 0.13 | 56 | 1007.5 |
| 20260502231118 | 11 | 30 | 1.6 | 1.6 | 0.00 | 0.13 | 0.13 | 54 | 1007.6 |
| 20260502230616 | 12 | 18 | 3.2 | 3.2 | 0.00 | 0.13 | 0.13 | 54 | 1007.4 |
| 20260502230114 | 12 | 36 | 1.6 | 3.2 | 0.00 | 0.13 | 0.13 | 50 | 1007.3 |
| 20260502225609 | 12 | 354 | 1.6 | 1.6 | 0.00 | 0.13 | 0.13 | 51 | 1007.3 |
| 20260502225107 | 12 | 27 | 1.6 | 1.6 | 0.00 | 0.13 | 0.13 | 55 | 1007.4 |
| 20260502224603 | 12 | 51 | 0.0 | 0.0 | 0.00 | 0.13 | 0.13 | 56 | 1007.4 |
| 20260502224100 | 12 | 20 | 1.6 | 1.6 | 0.00 | 0.13 | 0.13 | 55 | 1007.4 |
| 20260502223558 | 12 | 30 | 0.0 | 0.0 | 0.00 | 0.13 | 0.13 | 53 | 1007.2 |
| 20260502223056 | 12 | 7 | 1.6 | 1.6 | 0.00 | 0.13 | 0.13 | 55 | 1007.2 |
| 20260502222553 | 12 | 38 | 0.0 | 0.0 | 0.00 | 0.13 | 0.13 | 52 | 1007.2 |
| 20260502222049 | 12 | 42 | 0.0 | 0.0 | 0.00 | 0.13 | 0.13 | 53 | 1007.2 |
| 20260502221545 | 12 | 28 | 1.6 | 1.6 | 0.00 | 0.13 | 0.13 | 56 | 1007.2 |
| 20260502221043 | 12 | 37 | 0.0 | 1.6 | 0.00 | 0.13 | 0.13 | 53 | 1007.1 |
| 20260502220538 | 12 | 17 | 1.6 | 1.6 | 0.00 | 0.13 | 0.13 | 51 | 1007.2 |
| 20260502220035 | 12 | 35 | 1.6 | 1.6 | 0.00 | 0.13 | 0.13 | 51 | 1007.2 |
| 20260502215532 | 12 | 41 | 0.0 | 0.0 | 0.00 | 0.13 | 0.13 | 53 | 1007.1 |
| 20260502215029 | 12 | 27 | 3.2 | 3.2 | 0.00 | 0.13 | 0.13 | 52 | 1007.0 |
| 20260502214526 | 13 | 39 | 1.6 | 3.2 | 0.00 | 0.13 | 0.13 | 51 | 1007.2 |
| 20260502214024 | 13 | 29 | 1.6 | 1.6 | 0.00 | 0.13 | 0.13 | 47 | 1007.1 |
| 20260502213520 | 13 | 16 | 3.2 | 3.2 | 0.00 | 0.13 | 0.13 | 45 | 1007.1 |
| 20260502213018 | 13 | 298 | 3.2 | 3.2 | 0.00 | 0.13 | 0.13 | 49 | 1007.1 |
| 20260502212517 | 13 | 26 | 1.6 | 3.2 | 0.00 | 0.13 | 0.13 | 46 | 1007.1 |
| 20260502212014 | 13 | 339 | 1.6 | 1.6 | 0.00 | 0.13 | 0.13 | 44 | 1007.0 |
| 20260502211509 | 13 | 320 | 1.6 | 1.6 | 0.00 | 0.13 | 0.13 | 53 | 1006.9 |
| 20260502211007 | 12 | 327 | 1.6 | 1.6 | 0.00 | 0.13 | 0.13 | 50 | 1007.0 |
| 20260502210504 | 13 | 310 | 1.6 | 1.6 | 0.00 | 0.13 | 0.13 | 55 | 1007.0 |
| 20260502210001 | 13 | 313 | 1.6 | 1.6 | 0.00 | 0.13 | 0.13 | 49 | 1006.9 |
| 20260502205456 | 14 | 3 | 3.2 | 3.2 | 0.00 | 0.13 | 0.13 | 47 | 1006.9 |
| 20260502204954 | 14 | 342 | 3.2 | 3.2 | 0.00 | 0.13 | 0.13 | 46 | 1007.1 |
| 20260502204451 | 15 | 330 | 1.6 | 3.2 | 0.00 | 0.13 | 0.13 | 48 | 1007.0 |
| 20260502203949 | 15 | 5 | 1.6 | 1.6 | 0.00 | 0.13 | 0.13 | 47 | 1006.9 |
| 20260502203446 | 15 | 266 | 3.2 | 3.2 | 0.00 | 0.13 | 0.13 | 52 | 1007.0 |
| 20260502202942 | 14 | 324 | 1.6 | 1.6 | 0.00 | 0.13 | 0.13 | 57 | 1007.0 |
| 20260502202439 | 13 | 15 | 4.8 | 4.8 | 0.00 | 0.13 | 0.13 | 52 | 1007.3 |
| 20260502201937 | 13 | 19 | 0.0 | 0.0 | 0.00 | 0.13 | 0.13 | 54 | 1007.0 |
| 20260502201433 | 14 | 171 | 3.2 | 3.2 | 0.00 | 0.13 | 0.13 | 52 | 1007.1 |
| 20260502200930 | 14 | 51 | 0.0 | 0.0 | 0.00 | 0.13 | 0.13 | 59 | 1007.3 |
| 20260502200425 | 13 | 355 | 3.2 | 3.2 | 0.00 | 0.13 | 0.13 | 59 | 1007.4 |
| 20260502195923 | 13 | 48 | 1.6 | 1.6 | 0.00 | 0.13 | 0.13 | 53 | 1007.6 |
| 20260502195420 | 14 | 178 | 3.2 | 3.2 | 0.00 | 0.13 | 0.13 | 53 | 1007.4 |
| 20260502194916 | 13 | 34 | 0.0 | 0.0 | 0.00 | 0.13 | 0.13 | 59 | 1007.5 |
| 20260502194414 | 13 | 57 | 1.6 | 1.6 | 0.00 | 0.13 | 0.13 | 58 | 1007.5 |
| 20260502193909 | 14 | 355 | 3.2 | 3.2 | 0.00 | 0.13 | 0.13 | 56 | 1007.6 |
| 20260502193407 | 13 | 108 | 3.2 | 3.2 | 0.00 | 0.13 | 0.13 | 55 | 1007.7 |
| 20260502192902 | 15 | 348 | 1.6 | 1.6 | 0.00 | 0.13 | 0.13 | 55 | 1007.9 |
| 20260502192359 | 15 | 60 | 0.0 | 0.0 | 0.00 | 0.13 | 0.13 | 61 | 1007.8 |
| 20260502191856 | 15 | 317 | 0.0 | 0.0 | 0.00 | 0.13 | 0.13 | 57 | 1008.0 |
| 20260502191354 | 14 | 355 | 0.0 | 0.0 | 0.00 | 0.13 | 0.13 | 60 | 1008.1 |
| 20260502190851 | 14 | 7 | 6.4 | 8.0 | 0.00 | 0.13 | 0.13 | 62 | 1008.4 |
| 20260502190349 | 13 | 17 | 3.2 | 3.2 | 0.00 | 0.13 | 0.13 | 62 | 1008.3 |
| 20260502185844 | 13 | 25 | 3.2 | 3.2 | 0.00 | 0.13 | 0.13 | 63 | 1008.1 |
| 20260502185340 | 13 | 6 | 1.6 | 3.2 | 0.00 | 0.13 | 0.13 | 63 | 1008.3 |
| 20260502184837 | 13 | 54 | 1.6 | 1.6 | 0.00 | 0.13 | 0.13 | 64 | 1008.4 |
| 20260502184333 | 13 | 348 | 4.8 | 4.8 | 0.00 | 0.13 | 0.13 | 65 | 1008.4 |
| 20260502183829 | 13 | 15 | 6.4 | 8.0 | 0.00 | 0.13 | 0.13 | 62 | 1008.5 |
| 20260502183326 | 13 | 6 | 3.2 | 3.2 | 0.00 | 0.13 | 0.13 | 64 | 1008.5 |
| 20260502182821 | 12 | 315 | 3.2 | 4.8 | 0.00 | 0.13 | 0.13 | 66 | 1008.5 |
| 20260502182316 | 13 | 19 | 3.2 | 3.2 | 0.00 | 0.13 | 0.13 | 63 | 1008.6 |
| 20260502181813 | 13 | 24 | 4.8 | 4.8 | 0.00 | 0.13 | 0.13 | 64 | 1008.5 |
| 20260502181312 | 13 | 27 | 3.2 | 4.8 | 0.00 | 0.13 | 0.13 | 67 | 1008.6 |
| 20260502180809 | 12 | 11 | 0.0 | 1.6 | 0.00 | 0.13 | 0.13 | 73 | 1008.6 |
| 20260502180307 | 12 | 351 | 4.8 | 4.8 | 0.00 | 0.13 | 0.13 | 73 | 1008.6 |
| 20260502170226 | 11 | 2 | 6.4 | 9.7 | 0.00 | 0.13 | 0.13 | 78 | 1009.0 |
| 20260502164207 | 11 | 29 | 1.6 | 3.2 | 0.00 | 0.13 | 0.13 | 81 | 1009.0 |
| 20260502163702 | 11 | 22 | 4.8 | 4.8 | 0.00 | 0.13 | 0.13 | 80 | 1009.3 |
| 20260502163159 | 10 | 32 | 4.8 | 4.8 | 0.00 | 0.13 | 0.13 | 81 | 1009.0 |
| 20260502162656 | 10 | 14 | 4.8 | 4.8 | 0.00 | 0.13 | 0.13 | 82 | 1009.1 |
| 20260502162153 | 10 | 19 | 4.8 | 4.8 | 0.00 | 0.13 | 0.13 | 81 | 1009.2 |
| 20260502161650 | 10 | 4 | 6.4 | 9.7 | 0.00 | 0.13 | 0.13 | 80 | 1009.2 |
| 20260502161147 | 12 | 38 | 6.4 | 11.3 | 0.00 | 0.13 | 0.13 | 77 | 1009.1 |
| 20260502160645 | 12 | 318 | 3.2 | 3.2 | 0.00 | 0.13 | 0.13 | 75 | 1009.1 |
| 20260502160144 | 12 | 26 | 1.6 | 3.2 | 0.00 | 0.13 | 0.13 | 73 | 1008.8 |
| 20260502152057 | 11 | 282 | 3.2 | 3.2 | 0.00 | 0.13 | 0.13 | 81 | 1009.1 |
| 20260502151554 | 11 | 0 | 1.6 | 1.6 | 0.00 | 0.13 | 0.13 | 78 | 1009.0 |
| 20260502151052 | 11 | 336 | 1.6 | 3.2 | 0.00 | 0.13 | 0.13 | 80 | 1008.9 |
| 20260502150549 | 11 | 148 | 0.0 | 1.6 | 0.00 | 0.13 | 0.13 | 79 | 1009.1 |
| 20260502130434 | 9 | 326 | 1.6 | 1.6 | 0.00 | 0.13 | 0.13 | 96 | 1009.3 |
| 20260502123417 | 8 | 99 | 0.0 | 1.6 | 0.00 | 0.13 | 0.13 | 99 | 1009.1 |
| 20260502122914 | 8 | 106 | 0.0 | 0.0 | 0.00 | 0.13 | 0.13 | 99 | 1009.2 |
| 20260502122410 | 8 | 239 | 0.0 | 1.6 | 0.00 | 0.13 | 0.13 | 99 | 1009.4 |
| 20260502121908 | 8 | 23 | 0.0 | 1.6 | 0.00 | 0.13 | 0.13 | 99 | 1009.4 |
| 20260502121405 | 8 | 28 | 0.0 | 1.6 | 0.00 | 0.13 | 0.13 | 99 | 1009.1 |
| 20260502120903 | 8 | 23 | 1.6 | 1.6 | 0.00 | 0.13 | 0.13 | 99 | 1009.1 |
| 20260502120358 | 8 | 49 | 0.0 | 0.0 | 0.00 | 0.13 | 0.13 | 99 | 1009.3 |
| 20260502115856 | 8 | 50 | 0.0 | 0.0 | 0.00 | 0.13 | 0.13 | 99 | 1009.4 |
| 20260502115353 | 8 | 51 | 0.0 | 0.0 | 0.00 | 0.13 | 0.13 | 99 | 1009.5 |
| 20260502114849 | 8 | 75 | 0.0 | 0.0 | 0.00 | 0.13 | 0.13 | 99 | 1009.2 |
| 20260502114346 | 8 | 49 | 0.0 | 0.0 | 0.00 | 0.13 | 0.13 | 99 | 1009.4 |
| 20260502113843 | 8 | 56 | 0.0 | 0.0 | 0.00 | 0.13 | 0.13 | 99 | 1009.4 |
| 20260502113341 | 8 | 56 | 0.0 | 0.0 | 0.00 | 0.13 | 0.13 | 99 | 1009.2 |
| 20260502112839 | 8 | 56 | 0.0 | 0.0 | 0.00 | 0.13 | 0.13 | 99 | 1009.2 |
| 20260502112336 | 8 | 56 | 0.0 | 0.0 | 0.00 | 0.13 | 0.13 | 99 | 1009.3 |
| 20260502111834 | 8 | 56 | 0.0 | 0.0 | 0.00 | 0.13 | 0.13 | 99 | 1009.1 |
| 20260502111331 | 8 | 56 | 0.0 | 0.0 | 0.00 | 0.13 | 0.13 | 99 | 1009.1 |
| 20260502110828 | 8 | 49 | 0.0 | 0.0 | 0.00 | 0.13 | 0.13 | 99 | 1008.9 |
| 20260502110326 | 8 | 50 | 0.0 | 0.0 | 0.00 | 0.13 | 0.13 | 99 | 1009.0 |
| 20260502105823 | 7 | 64 | 0.0 | 0.0 | 0.00 | 0.13 | 0.13 | 99 | 1009.0 |
| 20260502105320 | 7 | 68 | 0.0 | 0.0 | 0.00 | 0.13 | 0.13 | 99 | 1008.9 |
| 20260502104818 | 7 | 68 | 0.0 | 0.0 | 0.00 | 0.13 | 0.13 | 99 | 1008.8 |
| 20260502104315 | 7 | 68 | 0.0 | 0.0 | 0.00 | 0.13 | 0.13 | 99 | 1008.9 |
| 20260502103812 | 7 | 64 | 0.0 | 0.0 | 0.00 | 0.13 | 0.13 | 99 | 1009.1 |
| 20260502103309 | 7 | 63 | 0.0 | 0.0 | 0.00 | 0.13 | 0.13 | 99 | 1009.0 |
| 20260502102807 | 7 | 66 | 0.0 | 0.0 | 0.00 | 0.13 | 0.13 | 99 | 1009.0 |
| 20260502102306 | 7 | 73 | 0.0 | 0.0 | 0.00 | 0.13 | 0.13 | 99 | 1008.8 |
| 20260502101801 | 7 | 74 | 0.0 | 0.0 | 0.00 | 0.13 | 0.13 | 99 | 1008.8 |
| 20260502101259 | 7 | 74 | 0.0 | 0.0 | 0.00 | 0.13 | 0.13 | 99 | 1008.6 |
| 20260502100756 | 7 | 70 | 0.0 | 0.0 | 0.00 | 0.13 | 0.13 | 99 | 1008.9 |
| 20260502100255 | 7 | 70 | 0.0 | 0.0 | 0.18 | 0.13 | 0.13 | 99 | 1008.8 |
| 20260502091229 | 8 | 56 | 0.0 | 0.0 | 0.00 | 0.03 | 0.03 | 99 | 1008.5 |
| 20260502090727 | 8 | 51 | 0.0 | 0.0 | 0.00 | 0.03 | 0.03 | 99 | 1008.6 |
| 20260502090223 | 8 | 57 | 0.0 | 0.0 | 0.00 | 0.03 | 0.03 | 99 | 1008.6 |
| 20260502071119 | 8 | 60 | 0.0 | 0.0 | 0.00 | 0.00 | 0.00 | 97 | 1008.6 |
| 20260502070617 | 8 | 52 | 0.0 | 0.0 | 0.00 | 0.00 | 0.00 | 97 | 1008.5 |
| 20260502070115 | 8 | 56 | 0.0 | 0.0 | 0.00 | 0.00 | 0.00 | 97 | 1008.6 |
| 20260502065613 | 8 | 58 | 0.0 | 0.0 | 0.00 | 0.00 | 0.00 | 97 | 1008.6 |
| 20260502065110 | 8 | 52 | 0.0 | 0.0 | 0.00 | 0.00 | 0.00 | 97 | 1008.9 |
| 20260502064609 | 8 | 62 | 0.0 | 0.0 | 0.00 | 0.00 | 0.00 | 96 | 1008.7 |
| 20260502064105 | 8 | 67 | 0.0 | 0.0 | 0.00 | 0.00 | 0.00 | 96 | 1008.8 |
| 20260502063603 | 8 | 66 | 0.0 | 0.0 | 0.00 | 0.00 | 0.00 | 96 | 1008.7 |
| 20260502063101 | 8 | 60 | 0.0 | 0.0 | 0.00 | 0.00 | 0.00 | 96 | 1008.8 |
| 20260502062558 | 8 | 80 | 0.0 | 0.0 | 0.00 | 0.00 | 0.00 | 96 | 1008.6 |
| 20260502062055 | 8 | 72 | 0.0 | 0.0 | 0.00 | 0.00 | 0.00 | 96 | 1008.7 |
| 20260502061553 | 8 | 66 | 0.0 | 0.0 | 0.00 | 0.00 | 0.00 | 96 | 1008.8 |
| 20260502061050 | 8 | 64 | 0.0 | 0.0 | 0.00 | 0.00 | 0.00 | 96 | 1008.8 |
| 20260502060545 | 8 | 107 | 0.0 | 0.0 | 0.00 | 0.00 | 0.00 | 95 | 1008.8 |
| 20260502060042 | 8 | 70 | 0.0 | 0.0 | 0.00 | 0.00 | 0.00 | 95 | 1008.9 |
| 20260502055540 | 8 | 78 | 0.0 | 0.0 | 0.00 | 0.00 | 0.00 | 95 | 1008.9 |
| 20260502055038 | 8 | 99 | 0.0 | 0.0 | 0.00 | 0.00 | 0.00 | 94 | 1008.9 |
| 20260502054537 | 8 | 66 | 0.0 | 0.0 | 0.00 | 0.00 | 0.00 | 94 | 1008.9 |
| 20260502054033 | 8 | 72 | 0.0 | 0.0 | 0.00 | 0.00 | 0.00 | 94 | 1008.9 |
| 20260502053530 | 8 | 66 | 0.0 | 0.0 | 0.00 | 0.00 | 0.00 | 93 | 1009.1 |
| 20260502053028 | 8 | 58 | 0.0 | 0.0 | 0.00 | 0.00 | 0.00 | 93 | 1008.9 |
| 20260502052527 | 8 | 67 | 0.0 | 0.0 | 0.00 | 0.00 | 0.00 | 93 | 1008.8 |
| 20260502052024 | 8 | 55 | 0.0 | 0.0 | 0.00 | 0.00 | 0.00 | 93 | 1008.9 |
| 20260502051522 | 8 | 63 | 0.0 | 0.0 | 0.00 | 0.00 | 0.00 | 93 | 1008.9 |
| 20260502051020 | 8 | 63 | 0.0 | 0.0 | 0.00 | 0.00 | 0.00 | 93 | 1008.9 |